Weather in Pokhvistnevo

Russia / Samara Oblast     53°39′11″N   52°07′20″E
В апреле 2022 года жителям России запретили посещать сайт meteo.paraplan.net по решению Генеральной прокуратуры. Аудитория сайта уменьшилась в 10 раз. Владельцы сайта не видят смысла в поддержке погодного сервера в таких условиях. Сайт будет закрыт в октябре.
temp.,
°C
wind,
m/s
gust,
m/s
humid.,
%
clouds,
%
prec.,
mm/h
press.,
hPa
HPBL,
m
30 september, fri
fri3001:00+6ese5894100 0.1 1017291
04:00+6e4693100 0.1 1019263
07:00+6e4691100 0.0 1021299
10:00+8e4584100 0.0 1022401
13:00+11e447492 0.0 1023646
16:00+11e4573100 0.0 1024799
19:00+10e477899 0.0 1025355
22:00+8ese477968 0.0 1026273
1 october, sat
sat101:00+6e3785100 0.0 1026212
04:00+5e3684100 0.0 1026195
07:00+5e268399 0.0 1026178
10:00+9ese456556 0.0 1026349
13:00+14se455234 0.0 1024688
16:00+15sse45524 0.0 1024907
19:00+11se35705 0.0 102381
22:00+8ese256522 0.0 1023103
2 october, sun
sun201:00+7ese236815 0.0 102258
04:00+7se257141 0.0 1022107
07:00+7se397079 0.0 1021185
10:00+13sse61051100 0.0 1020456
13:00+17s7104411 0.0 1019850
16:00+18s61050100 0.0 1018992
19:00+15s3107094 0.4 1018339
22:00+15sse51264100 0.4 1017395
3 october, mon
mon301:00+13sse51361100 0.0 1017375
04:00+13sse51159100 0.0 1018403
07:00+13sse51267100 0.3 1018420
10:00+15sse7135339 0.3 1019575
13:00+19s811385 0.0 10201009
16:00+19s7113924 0.0 10201151
19:00+16sse51345100 0.0 1022417
22:00+14sse5144197 0.0 1023478
4 october, tue
tue401:00+12sse5134099 0.0 1024445
04:00+11sse51543100 0.0 1025430
07:00+10se5144696 0.0 1026389
10:00+13sse71437100 0.0 1027640
13:00+15sse81126100 0.0 10271026
16:00+15sse61027100 0.0 10271059
19:00+12se41132100 0.0 1028355
22:00+11se51232100 0.0 1029380